New Bern, NC

11:16 AM EST on February 27, 2017 (GMT -0500)
Craven County Regional

Weather History for KEWN - March, 2012

Change the Weather History Date:

Friday, March 2, 2012

  Actual Average Record
Temperature  
Mean Temperature 61 °F 50 °F  
Max Temperature 68 °F 61 °F 82 °F (1976)
Min Temperature 54 °F 39 °F 19 °F (1967)
Degree Days  
Heating Degree Days 4 15  
Month to date heating degree days 4 31  
Since 1 July heating degree days 1793 2177  
Cooling Degree Days 0 0  
Month to date cooling degree days 9 0  
Year to date cooling degree days 13 3  
Growing Degree Days 10 (Base 50)    
Moisture  
Dew Point 57 °F    
Average Humidity 81    
Maximum Humidity 93    
Minimum Humidity 68    
Precipitation  
Precipitation T in 0.14 in 3.28 in (1994)
Month to date precipitation T 0.28  
Year to date precipitation 4.65 7.96  
Snow  
Snow 0.00 in - - ()
Month to date snowfall 0.0  
Since 1 July snowfall T  
Snow Depth 0.00 in    
Sea Level Pressure  
Sea Level Pressure 29.92 in    
Wind  
Wind Speed 8 mph (SE)    
Max Wind Speed 18 mph    
Max Gust Speed 25 mph    
Visibility 8 miles    
Events      
T = Trace of Precipitation, MM = Missing Value Source: NWS Daily Summary

Daily Weather History Graph

Daily Weather History Graph

Search for Another Location

Airport or City:

Trip Planner

Search our weather history database for the weather conditions in past years. The results will help you decide how hot, cold, wet, or windy it might be!

Date:

Astronomy

Mar. 02, 2012 Rise Set
Actual Time 6:35 AM EST 6:05 PM EST
Civil Twilight 6:10 AM EST 6:30 PM EST
Nautical Twilight 5:41 AM EST 6:59 PM EST
Astronomical Twilight 5:11 AM EST 7:29 PM EST
Moon 12:25 PM EST (3/2) 2:13 AM EST (3/2)
Length of Visible Light 12h 20m
Length of Day
11h 29m
Waxing Gibbous, 66% of the Moon is Illuminated
Mar 2
Waxing Gibbous
Mar 8
Full
Mar 14
Last Quarter
Mar 22
New
Mar 30
First Quarter

Hourly Weather History & Observations

Time (EST) Temp. Dew Point Humidity Pressure Visibility Wind Dir Wind Speed Gust Speed Precip Events Conditions
12:54 AM 64.9 °F 60.1 °F 84% 29.91 in 10.0 mi West 6.9 mph - N/A   Clear
1:54 AM 63.0 °F 59.0 °F 87% 29.91 in 10.0 mi West 4.6 mph - N/A   Clear
2:54 AM 60.1 °F 57.9 °F 93% 29.91 in 7.0 mi Calm Calm - N/A   Clear
3:06 AM 57.2 °F 55.4 °F 94% 29.92 in 1.5 mi NNE 3.5 mph - N/A   Clear
3:17 AM 62.6 °F 59.0 °F 88% 29.92 in 4.0 mi NNE 6.9 mph - N/A   Mostly Cloudy
3:52 AM 55.4 °F 51.8 °F 88% 29.94 in 9.0 mi NNE 11.5 mph - N/A   Overcast
3:54 AM 55.0 °F 52.0 °F 89% 29.94 in 8.0 mi NE 10.4 mph - N/A   Overcast
4:06 AM 53.6 °F 51.8 °F 94% 29.95 in 6.0 mi ENE 8.1 mph - N/A   Overcast
4:54 AM 55.0 °F 52.0 °F 89% 29.97 in 9.0 mi ENE 8.1 mph - N/A   Overcast
5:47 AM 55.4 °F 51.8 °F 88% 29.98 in 10.0 mi East 8.1 mph 16.1 mph N/A   Overcast
5:54 AM 55.9 °F 51.1 °F 84% 29.98 in 10.0 mi East 11.5 mph - N/A   Overcast
6:54 AM 55.0 °F 48.9 °F 80% 29.99 in 10.0 mi East 10.4 mph - N/A   Overcast
7:54 AM 55.9 °F 50.0 °F 80% 30.00 in 10.0 mi East 10.4 mph - N/A   Overcast
8:54 AM 57.0 °F 50.0 °F 77% 30.03 in 10.0 mi ESE 5.8 mph - N/A   Overcast
9:25 AM 57.2 °F 51.8 °F 82% 30.03 in 10.0 mi East 6.9 mph - N/A   Overcast
9:54 AM 59.0 °F 52.0 °F 78% 30.03 in 10.0 mi East 6.9 mph - N/A   Overcast
10:49 AM 60.8 °F 51.8 °F 72% 29.98 in 10.0 mi East 9.2 mph - N/A   Scattered Clouds
10:54 AM 60.1 °F 53.1 °F 78% 29.99 in 9.0 mi ESE 5.8 mph - N/A   Partly Cloudy
11:54 AM 60.1 °F 53.1 °F 78% 29.98 in 10.0 mi ENE 5.8 mph - N/A   Partly Cloudy
12:54 PM 62.1 °F 55.0 °F 78% 29.95 in 10.0 mi SSE 6.9 mph - 0.00 in   Clear
1:54 PM 64.9 °F 55.9 °F 73% 29.91 in 10.0 mi SE 6.9 mph - N/A   Clear
2:54 PM 66.0 °F 55.9 °F 70% 29.90 in 10.0 mi SSE 4.6 mph - N/A   Mostly Cloudy
3:54 PM 66.9 °F 60.1 °F 79% 29.87 in 9.0 mi South 9.2 mph 17.3 mph N/A   Overcast
4:01 PM 66.2 °F 60.8 °F 83% 29.87 in 9.0 mi South 8.1 mph - N/A   Overcast
4:26 PM 66.2 °F 60.8 °F 83% 29.87 in 6.0 mi South 11.5 mph - N/A   Haze
4:54 PM 66.0 °F 62.1 °F 87% 29.88 in 5.0 mi SSW 11.5 mph - N/A   Overcast
5:28 PM 66.2 °F 62.6 °F 88% 29.86 in 2.5 mi South 10.4 mph - N/A   Overcast
5:54 PM 66.0 °F 64.0 °F 93% 29.87 in 2.0 mi SSW 6.9 mph - N/A   Overcast
6:01 PM 66.2 °F 64.4 °F 94% 29.86 in 5.0 mi South 8.1 mph - N/A   Overcast
6:54 PM 66.0 °F 63.0 °F 90% 29.87 in 10.0 mi South 6.9 mph - N/A   Overcast
7:50 PM 66.2 °F 62.6 °F 88% 29.85 in 10.0 mi South 10.4 mph 19.6 mph N/A   Scattered Clouds
7:54 PM 66.0 °F 62.1 °F 87% 29.85 in 10.0 mi South 10.4 mph - N/A   Partly Cloudy
8:54 PM 66.0 °F 62.1 °F 87% 29.83 in 10.0 mi SSW 12.7 mph 24.2 mph N/A   Clear
9:54 PM 66.0 °F 61.0 °F 84% 29.82 in 10.0 mi SSW 13.8 mph 20.7 mph N/A   Clear
10:54 PM 64.9 °F 61.0 °F 87% 29.81 in 10.0 mi SSW 13.8 mph 20.7 mph N/A   Clear
11:54 PM 64.9 °F 61.0 °F 87% 29.79 in 10.0 mi SSW 9.2 mph - N/A   Clear